[Date Prev][Date Next][Thread Prev][Thread Next] - [Date Index][Thread Index][Author Index]

2 Line ISS Keps 4-29



ISS
1 25544U 98067A   02119.13645833  .00040735  00000-0  53006-3 0  3682
2 25544  51.6375 299.4603 0007471  17.3948 141.7898 15.58318201196371


----
Via the sarex mailing list at AMSAT.ORG courtesy of AMSAT-NA.
To unsubscribe, send "unsubscribe sarex" to Majordomo@amsat.org



AMSAT Top AMSAT Home